{"data":{"norad_id":69333,"epoch":"2026-09-20T00:41:10.335840Z","epoch_age_seconds":69743,"freshness":"FRESH","line1":"1 69333U 26122E   26263.02859185  .00012694  00000+0  39468-3 0  9998","line2":"2 69333  97.2838 291.6015 0003362 114.7155 245.4438 15.33454124 16723","mean_motion":15.33454124,"eccentricity":0.0003362,"inclination_deg":97.2838,"raan_deg":291.6015,"arg_perigee_deg":114.7155,"mean_anomaly_deg":245.4438,"bstar":0.00039468,"rev_number":1672,"period_min":93.905645918104,"perigee_km":463.21519186,"apogee_km":467.81686415603,"semimajor_km":6843.653028008,"source":"CELESTRAK","updated_at":"2026-09-20T09:00:44.159730Z"}}